Terminal Aerodrome Forecast
Issued by NWS

Home | Current Version | Previous Version | Text Only | Print | Product List | Glossary On
Versions: 1 2 3 4 5 6 7 8 9 10 11 12
000
FTUS45 KRIW 032334
TAFJAC
TAF
KJAC 032334Z 0400/0424 23011KT P6SM VCTS SCT050CB BKN100
     FM040200 19008KT 6SM SHRA VCTS SCT020 OVC035CB
     FM041000 21007KT P6SM VCSH SCT005 BKN040
     FM041700 19012KT P6SM SCT060
      AMD LTD TO CLD VIS AND WIND=

USA.gov is the U.S. government's official web portal to all federal, state and local government web resources and services.